[[{"header":{"parameterUnit":"m.s-1","parameterCategory":1,"la1":30.2991,"la2":30.254,"lo1":-89.0895,"lo2":-89.0444,"dy":0.0017,"dx":0.0017,"nx":28,"ny":28,"refTime":"2023-07-27T21:00:00:Z","depth":0,"parameterNumber":2,"parameterNumberName":"U-component_of_WINDS"},"data":[0,0,0,0,0,0,0,0,0,0,0,0,0,0,0,0,0,0,0,0,0,0,0,0,0,0,0,0,0,0,0,0,0,0,0,0,0,0,0,0,0,0,0,0,0,0,0,0,0,0,0,0,0,0,0,0,0,0,0.2345,0.2345,0,0.2377,0.2378,0.2378,0.241,0.2411,0.2411,0.2412,0.2443,0.2443,0.2443,0,0,0,0,0,0,0,0,0,0,0,0,0,0.2308,0.2308,0.2345,0.2345,0.2345,0.2377,0.2378,0.2378,0.241,0.2411,0.2411,0.2412,0.2442,0.2443,0.2443,0,0,0,0,0,0,0,0,0,0,0,0,0,0.233,0.2308,0.2344,0.2365,0.2368,0.2377,0.2378,0.2378,0.241,0.2411,0.2411,0.2412,0.2442,0.2443,0.2444,0.2434,0,0,0.2445,0.2446,0,0,0,0,0,0,0,0,0.2329,0.2332,0.2362,0.2364,0.2366,0.2391,0.2376,0.2397,0.241,0.2394,0.2412,0.2412,0.2425,0.2427,0.2431,0.2436,0.2437,0.2446,0.2446,0.2446,0.2446,0,0,0,0,0,0,0,0.2327,0.233,0.2357,0.2362,0.2365,0.2372,0.2376,0.238,0.2405,0.2395,0.2398,0.2401,0.2426,0.2431,0.2432,0.2438,0.2446,0.2446,0.2446,0.2447,0.2437,0.2436,0,0,0,0,0,0,0.2323,0.2329,0.2356,0.2358,0.2349,0.2372,0.2377,0.2382,0.2405,0.2409,0.2401,0.2403,0.2429,0.2432,0.2433,0.2425,0.2446,0.2447,0.2447,0.2438,0.2437,0.2436,0,0,0,0,0,0,0.2322,0.2325,0.2355,0.2344,0.2349,0.2372,0.2378,0.2382,0.2387,0.2409,0.2414,0.2401,0.243,0.2433,0.2434,0.2426,0.2447,0.2448,0.2438,0.2437,0.2437,0.2407,0,0,0,0,0,0,0.2321,0.2325,0.2322,0.2344,0.2349,0.2356,0.2377,0.2383,0.2388,0.2391,0.2411,0.2415,0.2431,0.2433,0.2435,0.2428,0.2448,0.2439,0.2438,0.2437,0.2409,0.2405,0.2402,0,0,0,0,0,0.232,0.2312,0.2322,0.2325,0.2346,0.2355,0.2358,0.2377,0.2388,0.2385,0.2399,0.2414,0.2427,0.2433,0.2435,0.2428,0.244,0.2438,0.2437,0.241,0.2406,0.2402,0,0,0,0,0,0,0.2286,0.2315,0.2326,0.2325,0.2338,0.2361,0.2358,0.2372,0.2381,0.2383,0.2406,0.241,0.2409,0.2419,0.2425,0.2421,0.2435,0.2434,0.2414,0.241,0.2407,0.2405,0.2449,0,0,0,0,0,0.2279,0.2285,0.2309,0.2306,0.2312,0.2334,0.2338,0.2352,0.2365,0.2371,0.2385,0.2397,0.2404,0.2408,0.2415,0.241,0.2415,0.2407,0.2403,0.24,0.2399,0.2398,0.2394,0.2432,0.2432,0.2432,0,0,0.2264,0.228,0.2282,0.23,0.2311,0.2316,0.2338,0.2342,0.2345,0.2371,0.2374,0.2385,0.2399,0.2398,0.2398,0.2406,0.239,0.2399,0.2396,0.2396,0.2396,0.2392,0.2389,0.2431,0.2431,0.2431,0,0,0.2239,0.2252,0.2251,0.2262,0.228,0.2294,0.2294,0.2315,0.2324,0.2327,0.2347,0.2351,0.2362,0.2372,0.2378,0.2358,0.2372,0.236,0.2342,0.234,0.2337,0.2335,0.2328,0.2325,0.2358,0.2358,0.2358,0,0.2218,0.2227,0.2248,0.2252,0.2259,0.2283,0.2283,0.2292,0.231,0.2314,0.2323,0.2338,0.235,0.2351,0.2347,0.2351,0.2351,0.2357,0.2336,0.2334,0.2332,0.2325,0.2323,0.2357,0.2357,0.2357,0.2357,0,0.22,0.2205,0.2203,0.2221,0.2228,0.2229,0.225,0.2255,0.2268,0.2282,0.2285,0.23,0.2311,0.2312,0.2325,0.2316,0.232,0.2332,0.2347,0.2326,0.2321,0.2318,0.2354,0.2355,0.2355,0.2356,0,0,0.2154,0.2186,0.2184,0.2193,0.2214,0.2219,0.2221,0.2233,0.2236,0.2248,0.225,0.2259,0.2271,0.2278,0.2292,0.2291,0.2274,0.2304,0.2304,0.2298,0.2265,0.2256,0.2253,0.2284,0.2283,0.2283,0.2264,0,0.2133,0.2139,0.2159,0.2159,0.2165,0.2189,0.2191,0.2203,0.2216,0.2222,0.2236,0.2243,0.2258,0.2262,0.2262,0.2276,0.2268,0.2278,0.2286,0.2286,0.2281,0.225,0.224,0.2221,0.2262,0.2261,0.2261,0,0.2108,0.212,0.2121,0.2143,0.2146,0.2147,0.216,0.2166,0.2181,0.2191,0.2199,0.2215,0.2218,0.2233,0.2237,0.2244,0.2248,0.2255,0.2255,0.2256,0.2272,0.225,0.2215,0.2212,0.2258,0.2258,0.2258,0,0.2075,0.2091,0.2094,0.2101,0.2126,0.2127,0.2137,0.2153,0.2159,0.217,0.2174,0.2185,0.2191,0.2199,0.2217,0.2226,0.2219,0.2235,0.2227,0.2226,0.2224,0.2224,0.219,0.2227,0.2227,0.2227,0.2227,0,0.2049,0.2049,0.208,0.2081,0.2082,0.2105,0.2104,0.2117,0.2131,0.2135,0.2155,0.2159,0.2183,0.2188,0.2203,0.2204,0.2207,0.2214,0.2218,0.2212,0.2211,0.2215,0.2217,0.2226,0.2226,0.2227,0.2227,0,0.2012,0.2033,0.2038,0.2062,0.2068,0.2067,0.2087,0.209,0.2104,0.2109,0.2112,0.2134,0.2142,0.2161,0.2174,0.2183,0.2181,0.2188,0.2176,0.2179,0.2169,0.217,0.2136,0.2133,0.2172,0.2172,0.2171,0,0.1994,0.1995,0.202,0.2024,0.2034,0.2042,0.2049,0.2071,0.2077,0.2095,0.2095,0.2105,0.2114,0.2125,0.2142,0.2152,0.2159,0.2147,0.2161,0.2155,0.2159,0.2159,0.2159,0.2144,0.2143,0.2143,0.2142,0,0.196,0.1971,0.198,0.1994,0.2001,0.2013,0.2025,0.2027,0.2053,0.2058,0.2067,0.2074,0.2088,0.2097,0.211,0.212,0.2135,0.2138,0.2136,0.2131,0.2124,0.2127,0.2168,0.2138,0.2139,0.2139,0.2139,0.2139,0.1932,0.1934,0.1952,0.1962,0.1974,0.1985,0.1989,0.2004,0.2013,0.2026,0.2039,0.2047,0.2062,0.2081,0.209,0.2096,0.2103,0.2101,0.2101,0.21,0.2097,0.2123,0.2098,0.2098,0.2098,0.2098,0.2098,0,0.1899,0.1913,0.1922,0.1939,0.1947,0.1962,0.1976,0.1981,0.1988,0.2002,0.2011,0.2021,0.203,0.2048,0.2059,0.2061,0.2068,0.2063,0.2063,0.2065,0.209,0.209,0.2057,0.2057,0.2057,0.2057,0.2057,0.2057,0.1883,0.1887,0.19,0.191,0.1923,0.1932,0.1939,0.1949,0.196,0.1971,0.198,0.1992,0.2007,0.2019,0.2028,0.2033,0.2036,0.2029,0.2036,0.2059,0.2063,0.2067,0.2067,0.2029,0.2029,0.201,0.201,0.201]},{"header":{"parameterUnit":"m.s-1","parameterCategory":1,"la1":30.2991,"la2":30.254,"lo1":-89.0895,"lo2":-89.0444,"dy":0.0017,"dx":0.0017,"nx":28,"ny":28,"refTime":"2023-07-27T21:00:00:Z","depth":0,"parameterNumber":3,"parameterNumberName":"V-component_of_WINDS"},"data":[0,0,0,0,0,0,0,0,0,0,0,0,0,0,0,0,0,0,0,0,0,0,0,0,0,0,0,0,0,0,0,0,0,0,0,0,0,0,0,0,0,0,0,0,0,0,0,0,0,0,0,0,0,0,0,0,0,0,2.0605,2.0606,0,2.0727,2.0729,2.073,2.0826,2.0827,2.0828,2.0828,2.0951,2.0953,2.0955,0,0,0,0,0,0,0,0,0,0,0,0,0,2.045,2.0452,2.0605,2.0606,2.0608,2.0727,2.0729,2.0731,2.0826,2.0827,2.0828,2.0829,2.095,2.0953,2.0955,0,0,0,0,0,0,0,0,0,0,0,0,0,2.0539,2.0453,2.0605,2.067,2.0677,2.0727,2.0729,2.0731,2.0825,2.0827,2.0828,2.0829,2.0949,2.0952,2.0956,2.095,0,0,2.0967,2.0968,0,0,0,0,0,0,0,0,2.0534,2.0545,2.0659,2.0666,2.0674,2.0763,2.0719,2.0804,2.0825,2.0769,2.0829,2.083,2.0887,2.0895,2.0915,2.0956,2.0961,2.0967,2.0969,2.0971,2.0972,0,0,0,0,0,0,0,2.0527,2.054,2.0653,2.066,2.0669,2.0692,2.0706,2.0736,2.0818,2.0774,2.0781,2.0794,2.0891,2.0912,2.0919,2.0963,2.0967,2.097,2.0972,2.0974,2.1003,2.1002,0,0,0,0,0,0,2.0512,2.0534,2.065,2.0657,2.0606,2.0693,2.0709,2.0733,2.0818,2.0833,2.0793,2.0798,2.0905,2.0915,2.0923,2.0922,2.0971,2.0974,2.0976,2.1004,2.1003,2.1001,0,0,0,0,0,0,2.0508,2.0521,2.0645,2.0598,2.0615,2.0695,2.072,2.0734,2.0755,2.0833,2.0848,2.0799,2.0906,2.0918,2.0943,2.0927,2.0976,2.0979,2.1006,2.1004,2.1002,2.0918,0,0,0,0,0,0,2.0503,2.0519,2.0519,2.0597,2.0617,2.0662,2.0719,2.0736,2.0761,2.077,2.0843,2.0856,2.0908,2.0937,2.0946,2.0933,2.0982,2.1008,2.1005,2.1002,2.0922,2.0913,2.0905,0,0,0,0,0,2.0497,2.049,2.0518,2.0532,2.0618,2.0661,2.0673,2.0734,2.076,2.0759,2.0809,2.0854,2.0927,2.0938,2.095,2.0937,2.1009,2.1006,2.1003,2.0926,2.0915,2.0905,0,0,0,0,0,0,2.0407,2.0501,2.0534,2.0552,2.0598,2.0677,2.0679,2.0721,2.076,2.0765,2.0839,2.0854,2.087,2.0907,2.0917,2.0935,2.0974,2.0973,2.0911,2.0901,2.0893,2.0884,2.0985,0,0,0,0,0,2.0389,2.0417,2.0498,2.0505,2.0527,2.0598,2.062,2.0663,2.0713,2.0733,2.0785,2.0831,2.0865,2.0885,2.092,2.0928,2.0944,2.0925,2.0916,2.0909,2.0907,2.0912,2.0904,2.0991,2.0991,2.0991,0,0,2.0352,2.0407,2.042,2.0489,2.053,2.0556,2.0614,2.064,2.066,2.0737,2.0763,2.0802,2.0858,2.0874,2.0883,2.0904,2.0887,2.0905,2.0898,2.0901,2.0908,2.09,2.0893,2.0989,2.0989,2.099,0,0,2.0299,2.0344,2.0355,2.0395,2.0456,2.0504,2.0506,2.0579,2.0609,2.0636,2.0694,2.0718,2.0774,2.0812,2.0838,2.0798,2.084,2.0807,2.0762,2.0767,2.076,2.0754,2.0739,2.0733,2.0805,2.0805,2.0805,0,2.0245,2.0288,2.0355,2.0377,2.0404,2.0476,2.0487,2.0522,2.0591,2.0608,2.0631,2.0703,2.0746,2.077,2.076,2.078,2.0784,2.0799,2.0756,2.0751,2.0746,2.0732,2.0727,2.08,2.0801,2.0801,2.0802,0,2.0219,2.0247,2.0249,2.0315,2.0342,2.0358,2.0426,2.0446,2.0486,2.0531,2.0557,2.0611,2.0658,2.0667,2.0707,2.0697,2.0708,2.0742,2.0782,2.0732,2.0721,2.0716,2.0794,2.0796,2.0797,2.0798,0,0,2.0112,2.0214,2.0213,2.0244,2.0316,2.0339,2.0358,2.0405,2.042,2.0465,2.0481,2.0527,2.0559,2.0589,2.0633,2.0637,2.06,2.0671,2.0673,2.0655,2.0591,2.0565,2.0558,2.0628,2.0628,2.0627,2.0586,0,2.007,2.0109,2.0168,2.0187,2.0214,2.0281,2.0297,2.0343,2.0384,2.0412,2.0458,2.0489,2.0529,2.0548,2.0555,2.0603,2.0588,2.0607,2.0643,2.0644,2.0627,2.0552,2.0524,2.0483,2.0582,2.0582,2.0581,0,2.0026,2.0067,2.0089,2.0158,2.0172,2.0185,2.0232,2.0258,2.0311,2.0341,2.0373,2.0421,2.0443,2.0479,2.0509,2.0521,2.0539,2.0565,2.0565,2.057,2.0609,2.0554,2.0472,2.0465,2.0575,2.0575,2.0576,0,1.9945,2.0006,2.0027,2.0051,2.0133,2.014,2.0174,2.0228,2.0252,2.0293,2.0309,2.0351,2.0374,2.0405,2.0462,2.0484,2.0486,2.0527,2.051,2.0509,2.0508,2.0507,2.0426,2.052,2.052,2.052,2.052,0,1.9891,1.9901,1.9991,2.0004,2.0017,2.0085,2.0095,2.0136,2.0182,2.0203,2.0264,2.0281,2.0357,2.0383,2.0428,2.0445,2.0455,2.0479,2.0491,2.0474,2.047,2.0486,2.049,2.0518,2.0519,2.0519,2.0519,0,1.9803,1.9864,1.9891,1.9966,1.9985,1.9991,2.0055,2.0069,2.0114,2.0139,2.0149,2.0219,2.0253,2.0313,2.0364,2.0394,2.0402,2.0423,2.0385,2.0392,2.0371,2.0372,2.0298,2.0291,2.0389,2.0388,2.0387,0,1.9764,1.9774,1.985,1.9869,1.9901,1.993,1.9955,2.0021,2.0044,2.0104,2.011,2.0149,2.0183,2.0233,2.0288,2.0327,2.0349,2.032,2.0355,2.0337,2.0348,2.0346,2.0347,2.0312,2.031,2.0309,2.0308,0,1.9689,1.9719,1.9753,1.9797,1.9825,1.9862,1.9903,1.9914,1.999,2.0012,2.0048,2.0075,2.0127,2.0164,2.021,2.0244,2.0288,2.0297,2.0295,2.0277,2.0254,2.0266,2.0362,2.0298,2.0299,2.03,2.0301,2.0301,1.9625,1.9636,1.9691,1.9726,1.9764,1.98,1.9817,1.9864,1.9895,1.9943,1.998,2.0013,2.0063,2.0131,2.0162,2.0187,2.0208,2.0205,2.0205,2.0203,2.0195,2.025,2.0196,2.0196,2.0197,2.0197,2.0197,0,1.9552,1.9591,1.9623,1.9678,1.9705,1.9745,1.9792,1.9812,1.984,1.9884,1.9916,1.9956,1.9992,2.005,2.009,2.0099,2.012,2.0107,2.0107,2.0114,2.0175,2.0172,2.009,2.009,2.009,2.009,2.009,2.009,1.9517,1.9538,1.9574,1.9613,1.9652,1.9685,1.9708,1.9741,1.9777,1.9819,1.9849,1.9887,1.9936,1.998,2.0014,2.003,2.0042,2.0022,2.0044,2.01,2.011,2.0119,2.0117,2.0024,2.0024,1.9981,1.9981,1.9981]}]]